Probability
0 0 0 0 0 0 0 0 0 0 0 0 0 0 0 0 0 0 0 0 0 0 1 0 0 0 0 0 0 0 0 0 0 0 0 0 1 2 2 1 0 0 0 0 0 0 0 0 0
0 0 0 0 0 0 0 0 0 0 0 0 0 0 0 0 0 0 0 0 0 0 1 0 0 0 0 0 0 0 0 0 0 0 0 1 2 2 2 2 1 0 0 0 0 0 0 0 0
0 0 0 0 0 0 0 0 0 0 0 0 0 0 0 0 0 0 0 0 0 0 0 0 0 0 0 0 0 0 0 0 0 0 0 1 2 2 2 2 1 0 0 0 0 0 0 0 0
0 0 0 0 0 0 0 0 0 0 0 0 0 0 0 0 0 0 0 0 0 0 0 0 0 0 0 0 0 0 0 0 0 0 1 1 1 1 1 1 0 0 0 0 0 0 0 0 0
1 0 0 0 0 0 0 0 0 0 0 0 0 0 0 0 0 0 0 0 1 0 0 0 1 0 0 0 0 0 0 0 0 1 2 1 0 0 0 0 0 0 0 0 0 0 0 0 0
1 0 0 0 0 0 0 0 0 0 0 0 0 0 0 1 0 0 0 0 0 0 0 0 0 0 0 0 0 0 0 0 0 1 1 1 0 0 0 0 0 0 0 0 0 0 0 0 0
1 0 0 0 0 0 0 0 0 0 0 0 0 0 1 2 2 2 2 1 0 0 0 0 0 0 0 0 0 0 0 0 0 0 0 0 0 0 0 0 0 0 0 0 0 0 0 0 0
0 0 0 0 0 0 0 0 0 0 0 0 0 0 1 3 3 4 4 2 0 0 0 0 0 0 0 0 0 0 0 0 0 0 0 0 0 0 0 0 0 0 0 0 0 0 0 0 0
0 0 0 0 0 0 0 0 0 0 0 0 0 0 1 3 4 5 5 4 1 0 0 0 0 0 0 0 0 0 0 0 0 0 0 0 0 0 0 0 0 0 0 0 0 0 0 0 0
0 0 0 0 0 0 0 0 0 0 0 0 0 0 2 4 5 5 6 5 2 0 0 0 0 0 0 0 0 0 0 0 0 0 0 0 0 0 0 0 0 0 0 0 0 0 0 0 0
0 0 0 0 0 0 0 0 0 0 0 0 0 1 3 5 6 6 6 4 2 0 0 0 0 0 0 0 0 0 0 0 0 0 0 0 0 0 0 0 1 0 0 0 0 0 0 0 0
0 0 0 0 0 0 0 0 0 0 0 0 0 1 3 5 5 5 5 4 2 1 0 0 0 0 0 0 0 0 0 0 0 0 0 0 0 0 0 0 1 1 1 0 0 0 1 1 1
0 0 0 0 0 0 0 0 1 1 1 0 0 1 2 3 3 4 4 3 2 1 0 0 0 0 0 0 0 0 0 0 0 0 0 0 0 0 0 0 0 1 2 1 0 0 1 2 2
0 0 0 0 0 0 0 0 1 1 1 0 0 0 1 2 2 3 4 3 3 1 0 1 2 1 0 0 0 0 0 0 0 0 0 0 0 0 0 0 0 1 1 1 0 0 1 1 1
0 0 0 0 0 0 0 0 1 1 0 0 0 0 0 1 3 4 4 3 3 2 1 2 3 2 1 1 0 0 0 0 0 0 0 0 0 0 0 0 0 0 0 0 0 0 0 0 0
1 2 1 0 0 0 0 0 1 1 0 0 0 0 0 1 2 3 3 3 2 2 2 3 3 3 3 2 1 1 0 0 0 0 0 0 0 0 1 0 0 0 0 0 0 0 0 0 0
2 2 1 0 0 0 0 0 0 0 0 0 0 0 0 0 1 1 3 3 1 1 2 3 3 3 3 3 3 2 1 1 1 1 0 0 0 0 0 0 0 0 0 0 0 0 0 0 0
1 1 1 0 0 0 0 0 0 0 0 0 0 1 0 0 0 1 2 3 1 0 1 2 3 3 3 4 4 4 2 2 2 1 0 0 0 0 0 0 0 0 0 0 0 0 0 0 0
0 0 0 0 0 0 0 0 0 0 0 0 0 0 0 0 0 1 2 3 2 1 0 1 3 3 4 5 6 5 4 3 3 2 1 0 0 0 0 0 0 0 0 0 0 0 0 0 0
0 0 0 0 0 0 0 0 0 0 0 0 0 0 0 0 0 1 2 3 3 2 1 1 3 4 5 6 6 6 6 5 4 3 1 0 0 0 0 0 0 0 0 0 0 0 0 0 0
0 0 0 1 0 0 0 0 0 0 0 0 0 0 0 0 0 1 2 3 3 3 2 2 3 4 6 6 6 6 6 6 5 4 3 1 1 0 0 0 0 0 0 0 0 0 0 0 0
0 0 0 0 0 0 0 0 0 0 0 0 0 0 0 0 0 0 1 3 3 3 3 2 1 2 4 6 7 7 6 6 5 5 4 3 2 1 0 0 0 0 0 0 0 0 0 0 0
0 0 0 0 0 0 0 0 0 0 0 1 0 0 0 0 0 0 1 2 3 3 3 2 1 1 3 6 8 7 6 5 5 4 4 3 3 1 0 0 0 0 0 0 0 0 0 0 0
0 0 0 0 0 0 0 0 0 0 0 0 0 1 1 1 0 0 1 2 3 3 3 4 4 3 4 6 7 7 6 6 5 4 3 3 3 2 1 0 0 0 0 0 0 0 0 0 0
0 0 0 0 0 0 0 0 0 0 0 0 0 1 2 2 1 0 1 3 4 3 3 4 4 5 6 7 7 6 6 6 6 5 4 3 3 3 1 0 0 0 0 0 0 0 0 0 0
0 0 0 0 0 0 0 0 0 0 0 0 1 1 2 2 1 0 1 4 4 4 3 3 3 3 4 5 6 6 6 6 6 6 5 4 3 3 2 0 0 0 0 0 0 0 0 0 0
0 0 0 0 0 0 0 0 0 0 0 0 1 2 2 1 0 0 1 4 4 4 3 2 1 1 1 3 5 6 7 7 7 6 6 5 4 3 1 0 0 0 0 0 0 0 0 0 0
0 0 0 0 0 0 0 0 0 0 0 0 1 2 1 0 0 0 1 3 5 4 3 1 0 0 1 2 4 6 7 8 7 6 5 4 3 2 1 0 0 0 0 0 0 0 0 0 0
0 0 0 0 0 0 0 0 0 0 0 0 0 1 1 0 0 0 1 3 4 4 2 1 0 0 1 2 4 6 7 8 7 6 4 3 3 3 1 0 0 0 0 0 0 0 0 0 0
0 0 0 0 0 0 0 0 0 0 0 0 0 0 0 0 0 0 1 2 3 3 1 0 0 1 2 2 3 5 7 7 6 5 4 3 3 3 2 1 0 0 0 0 0 0 0 0 0
Wind_Speed
4 3 3 3 3 2 4 4 3 4 4 5 5 4 6 7 6 6 5 4 4 4 5 6 6 6 7 8 8 9 9 9 10 10 10 10 9 9 8 9 9 9 9 9 9 9 9 9 9
2 2 3 3 2 3 5 4 5 5 6 5 5 5 6 7 6 6 5 4 4 5 5 7 7 7 8 8 9 9 9 9 9 10 10 9 9 9 9 9 9 9 9 9 9 9 9 9 9
3 2 2 1 1 2 6 5 6 7 5 2 4 4 5 6 5 5 5 5 5 6 6 8 7 8 8 9 9 10 10 10 10 10 10 9 9 9 9 9 9 9 9 9 9 9 9 9 9
3 3 2 1 5 4 4 5 6 7 5 3 4 6 6 5 4 5 6 6 6 6 6 9 8 9 9 9 10 10 10 10 10 10 10 10 9 10 9 9 8 8 8 9 9 9 9 9 9
2 2 3 4 4 4 3 4 4 4 4 4 4 6 7 5 6 8 7 6 6 6 7 9 8 8 9 9 10 10 10 10 10 10 10 10 10 10 9 9 9 8 8 8 9 8 8 8 9
2 2 3 5 6 4 3 3 4 4 6 5 5 6 7 6 7 7 7 7 6 6 7 8 9 8 9 9 9 10 10 9 10 10 10 10 10 10 10 10 9 9 8 8 8 8 8 9 9
2 2 2 4 5 5 4 3 3 4 5 4 3 5 7 7 7 7 7 7 7 6 6 6 7 8 8 9 9 9 9 9 9 9 9 10 10 10 10 10 10 10 9 9 8 8 8 8 9
1 2 4 4 4 4 4 4 2 2 4 4 1 3 6 8 8 8 8 7 6 6 5 5 5 5 6 7 9 9 9 9 9 9 8 8 8 9 9 9 10 10 10 10 9 9 8 8 8
3 3 4 4 4 4 5 5 3 2 5 4 2 4 6 11 10 9 8 7 6 5 4 4 5 5 5 6 7 7 7 7 6 7 6 3 5 6 7 11 10 10 10 10 9 9 8 7 8
3 3 3 2 2 3 5 3 4 5 5 5 5 6 9 11 10 9 7 7 6 5 4 4 4 4 4 4 4 3 4 4 4 4 4 4 5 5 6 10 9 9 8 9 8 6 5 2 4
2 2 3 2 2 3 4 4 4 5 4 4 6 9 11 11 9 8 7 5 5 5 4 3 4 4 4 3 3 2 3 3 3 4 5 3 4 3 3 3 5 5 4 5 5 3 3 4 4
4 3 2 2 3 3 4 4 4 3 1 2 5 9 11 10 9 8 7 6 5 5 4 4 3 3 3 3 3 2 2 2 2 3 4 3 2 3 3 2 3 3 3 3 3 3 4 4 4
5 4 3 3 4 3 4 4 3 3 2 4 7 9 10 9 8 7 6 6 6 5 5 4 4 3 3 3 2 2 2 2 3 2 2 3 2 3 3 2 3 3 3 3 3 3 4 4 5
4 5 4 3 4 4 4 3 3 3 5 7 9 9 9 9 8 8 7 6 6 6 5 5 4 3 3 3 3 2 2 2 2 2 2 2 2 2 2 3 3 3 3 3 3 4 3 4 4
6 5 5 4 4 4 4 5 5 4 7 8 8 8 8 8 8 7 7 6 6 6 5 5 4 4 3 3 3 2 2 2 2 1 2 2 2 2 2 2 2 2 2 3 3 4 3 3 3
6 6 6 5 5 5 6 5 3 5 8 8 8 8 8 8 8 7 7 6 6 5 5 5 4 4 3 3 3 2 2 2 2 2 1 2 2 2 2 2 2 2 2 2 2 2 3 3 3
7 6 6 5 4 5 7 5 3 5 7 7 8 8 8 8 8 7 6 6 6 5 5 5 5 4 4 3 3 2 2 2 1 1 1 1 2 2 2 2 2 2 2 2 2 2 2 3 3
6 6 5 5 4 6 7 6 3 6 8 8 8 8 8 8 7 7 6 6 6 5 5 5 5 4 4 3 3 3 2 2 1 1 1 1 1 1 2 1 2 2 2 2 2 3 2 2 2
4 6 5 4 3 5 7 7 5 5 8 8 8 8 8 8 7 7 6 6 6 6 5 6 6 5 4 3 3 3 3 2 2 1 2 1 1 1 2 1 1 1 2 2 2 2 2 2 1
6 7 5 3 3 5 6 7 5 5 7 8 8 9 9 8 7 7 7 6 6 6 6 5 5 6 5 4 3 3 2 2 2 1 1 1 1 1 1 1 1 2 2 2 2 2 1 1 0
7 7 5 3 2 5 5 6 6 4 6 6 7 7 7 7 8 8 8 7 7 6 6 5 5 6 6 5 3 3 3 2 3 2 2 1 2 2 1 1 1 1 2 2 2 2 2 1 1
7 5 6 5 6 4 5 5 3 4 5 5 5 6 6 7 8 8 8 8 7 6 5 5 5 5 6 6 5 5 4 3 3 2 2 2 2 2 1 1 1 1 1 2 2 2 2 2 1
4 3 6 7 7 7 6 7 2 3 4 4 4 5 5 6 7 8 8 7 7 6 5 5 5 4 4 5 5 5 5 3 3 3 3 3 2 2 2 1 1 1 1 1 2 2 2 2 1
4 5 5 7 7 8 6 7 3 2 3 2 3 4 4 5 6 7 7 7 6 5 5 5 5 5 4 5 6 6 6 5 4 4 3 3 2 2 3 2 2 1 1 2 2 2 2 2 2
7 7 5 6 6 5 2 6 3 1 1 2 2 2 3 4 5 6 6 6 6 6 5 5 5 5 5 5 6 6 6 6 6 5 4 3 3 2 3 3 2 2 1 2 2 2 2 2 2
7 9 6 5 5 2 4 6 1 2 1 1 1 1 3 4 4 5 5 6 6 6 6 6 6 5 5 5 5 6 6 4 4 5 4 4 3 3 3 3 2 2 2 2 2 2 2 2 2
7 7 5 7 6 6 4 3 2 2 1 1 1 2 3 3 4 4 5 5 6 6 6 6 6 5 5 5 5 5 5 5 5 5 5 4 3 3 4 3 3 3 3 3 3 2 3 3 2
4 3 5 6 6 6 5 5 3 3 2 1 1 1 2 2 3 4 4 5 5 5 5 6 5 5 4 4 4 4 5 5 5 5 5 4 4 4 4 4 4 3 3 3 3 3 2 3 2
5 6 6 6 6 6 5 2 1 1 1 1 1 1 1 2 2 3 4 4 4 5 5 5 5 5 4 4 4 4 4 4 5 5 4 4 4 4 5 4 4 4 3 4 4 3 3 4 3
6 7 7 7 7 7 7 2 3 1 0 1 1 0 0 1 2 2 3 4 4 4 5 5 5 5 4 4 4 4 4 4 5 5 5 5 5 5 5 5 5 4 4 4 4 4 4 4 4
Wind_Direction
174 186 220 235 222 146 91 88 100 113 91 70 66 63 62 46 27 63 81 86 86 91 85 97 79 75 74 75 77 80 82 83 85 86 86 87 88 89 91 89 88 87 86 86 85 84 83 83 83
169 195 230 242 235 136 101 103 103 85 101 108 84 76 75 71 58 86 105 99 102 91 80 78 82 80 78 76 74 77 78 81 84 87 86 87 88 88 90 90 88 87 86 85 83 82 83 84 83
173 232 256 232 148 98 109 113 109 101 106 121 98 66 56 72 83 95 101 120 111 93 83 82 80 83 80 78 75 75 75 78 82 85 85 86 86 89 89 89 89 87 86 86 85 81 80 82 82
209 208 216 168 108 79 97 116 129 133 118 97 113 98 85 67 74 97 114 121 111 99 89 85 77 81 82 81 79 78 76 78 80 82 83 83 81 81 83 86 89 89 87 86 86 84 80 81 81
227 226 165 138 113 107 106 113 139 138 123 113 117 106 99 87 92 108 119 118 110 101 92 92 84 83 83 82 82 80 78 78 78 78 79 79 80 81 81 83 84 86 87 86 84 83 81 81 82
205 213 180 148 129 128 122 134 146 125 118 123 125 114 101 109 116 115 119 116 108 103 98 100 95 84 81 82 80 80 81 80 79 77 76 75 76 79 80 81 80 82 86 88 86 84 85 85 84
218 178 158 144 145 145 131 145 153 134 126 117 129 118 120 132 123 125 123 116 108 104 101 100 106 104 94 83 78 78 77 77 77 77 76 75 76 76 77 78 77 78 81 84 85 84 86 87 85
240 180 166 167 164 145 136 147 126 139 111 108 148 130 133 142 139 134 125 122 115 111 106 103 103 98 101 100 84 78 75 75 76 76 77 83 92 88 82 86 79 78 79 79 78 80 84 87 85
224 202 175 168 174 148 150 156 131 122 131 129 102 69 112 138 147 144 138 132 123 114 110 107 104 98 92 90 94 96 87 79 89 90 87 102 93 92 91 72 75 77 78 78 76 75 78 95 97
208 198 152 128 158 147 157 162 152 164 155 146 129 111 129 146 155 154 150 145 140 132 121 112 106 108 103 95 100 93 92 90 79 79 82 78 78 73 76 87 79 83 87 91 81 82 103 110 96
177 168 132 135 134 147 159 159 170 179 171 169 158 148 149 156 161 162 156 151 146 140 135 125 119 112 108 106 98 92 87 81 76 76 76 75 82 93 88 97 110 107 112 97 106 122 78 69 66
158 140 153 142 147 162 165 162 169 193 127 132 152 152 157 165 167 168 162 157 151 145 142 141 137 123 118 113 104 107 102 92 80 77 74 75 76 76 77 80 75 77 80 78 76 70 74 70 68
171 152 145 145 146 154 153 168 180 187 157 144 145 156 165 170 170 168 164 161 156 154 154 150 152 141 131 113 115 118 104 98 94 82 83 80 80 82 83 77 71 70 73 83 79 75 71 66 60
158 156 155 159 166 173 176 181 201 186 169 162 163 169 173 176 176 171 172 172 167 163 158 153 156 149 148 141 141 120 114 113 89 87 82 81 81 78 74 73 68 64 70 70 83 86 77 68 65
164 170 174 185 191 185 202 207 212 182 176 175 176 175 175 179 181 181 178 180 175 169 164 156 158 157 157 145 131 124 126 126 114 105 88 86 85 89 81 68 69 66 76 85 81 84 77 77 76
190 201 199 179 196 193 222 235 182 176 188 189 186 183 182 182 188 186 184 185 180 175 169 161 169 171 154 146 147 142 139 132 125 118 96 95 99 90 79 78 76 74 77 77 87 85 87 84 70
200 211 210 182 194 201 224 242 170 182 198 197 191 189 189 185 190 187 188 188 186 183 176 172 176 173 159 153 152 152 148 143 135 122 109 101 91 94 98 85 89 91 84 77 82 88 86 86 76
203 218 219 215 185 211 227 244 217 193 210 211 203 198 194 193 189 185 185 188 187 188 185 179 173 177 162 165 170 157 155 150 141 127 122 104 100 95 94 109 107 98 95 92 97 103 94 82 83
239 233 234 225 194 226 239 252 246 208 212 217 210 201 196 195 188 181 183 187 187 187 191 184 182 177 171 172 181 180 173 170 159 155 150 142 131 104 102 127 107 99 94 96 109 112 117 107 96
228 236 234 206 200 238 256 259 249 222 220 221 216 206 202 199 188 180 185 186 194 190 191 191 192 184 182 183 184 185 182 176 145 144 158 162 152 137 130 145 134 125 118 129 121 131 138 119 241
229 241 241 242 220 221 256 245 219 209 206 213 221 220 209 203 198 187 188 191 194 193 190 192 194 191 186 183 181 170 164 172 164 168 164 168 158 154 159 155 145 153 165 152 167 174 183 203 217
233 237 243 234 240 231 239 266 215 197 194 200 207 207 207 204 204 192 189 192 195 196 192 191 188 190 185 182 187 186 191 190 188 179 163 166 159 152 164 169 171 163 163 175 192 189 209 220 220
240 232 235 238 249 253 227 255 230 176 216 213 208 205 204 202 200 196 192 194 197 193 189 192 187 188 190 189 190 203 202 201 184 174 164 172 160 162 162 176 189 183 183 196 202 203 220 217 246
197 203 210 223 239 244 232 242 254 189 243 237 204 200 197 192 191 192 189 191 191 188 184 186 187 182 187 196 195 206 202 199 188 188 181 188 175 178 172 176 187 197 198 199 205 212 215 235 237
214 227 226 218 222 239 208 240 254 23 309 266 237 191 181 173 174 177 179 182 183 183 185 186 187 183 189 203 203 205 206 204 202 201 197 204 194 189 184 182 193 190 198 202 212 218 221 226 233
218 234 247 259 257 242 204 239 225 32 317 273 235 153 145 151 164 170 176 181 179 181 185 190 193 192 193 205 207 204 205 209 210 211 210 211 212 204 188 190 194 197 201 208 212 234 227 232 232
215 223 258 271 274 264 225 224 238 180 187 157 140 142 147 156 164 170 174 178 178 182 185 190 193 197 198 205 210 206 207 208 211 215 216 217 214 202 194 197 199 201 206 212 207 226 225 230 241
271 217 213 235 252 250 238 235 228 185 176 154 159 152 138 152 168 173 178 183 182 186 189 190 193 196 196 205 212 212 216 214 217 217 211 210 210 202 195 198 202 201 203 213 215 229 243 237 227
196 210 228 235 251 264 258 222 86 214 236 249 202 173 160 165 174 180 178 184 185 185 188 192 196 200 201 206 208 210 214 220 217 215 211 212 211 207 202 200 206 203 206 210 209 220 223 235 230
244 234 232 240 238 247 266 254 107 160 313 308 321 24 110 172 169 176 177 179 184 185 189 194 200 203 205 209 208 211 204 211 215 215 211 205 204 206 207 203 207 205 210 213 215 217 222 230 235